TimeCDT,TemperatureF,Dew PointF,Humidity,Sea Level PressureIn,VisibilityMPH,Wind Direction,Wind SpeedMPH,Gust SpeedMPH,PrecipitationIn,Events,Conditions,WindDirDegrees,DateUTC
12:52 AM,48.9,39.9,71,29.92,10.0,SW,6.9,-,N/A,,Partly Cloudy,230,2013-10-18 05:52:00
1:52 AM,48.0,39.9,74,29.92,10.0,SW,5.8,-,N/A,,Partly Cloudy,220,2013-10-18 06:52:00
2:52 AM,48.0,41.0,77,29.92,10.0,SW,5.8,-,N/A,,Scattered Clouds,230,2013-10-18 07:52:00
3:52 AM,45.0,39.9,82,29.93,10.0,WSW,4.6,-,N/A,,Clear,240,2013-10-18 08:52:00
4:52 AM,42.1,39.0,89,29.94,10.0,WSW,4.6,-,N/A,,Clear,250,2013-10-18 09:52:00
5:52 AM,41.0,39.0,93,29.95,10.0,WSW,5.8,-,N/A,,Clear,240,2013-10-18 10:52:00
6:52 AM,41.0,39.0,93,29.98,10.0,WSW,4.6,-,N/A,,Clear,240,2013-10-18 11:52:00
7:43 AM,39.2,39.2,100,30.00,10.0,Calm,Calm,-,N/A,,Mostly Cloudy,0,2013-10-18 12:43:00
7:52 AM,43.0,41.0,93,30.01,10.0,West,5.8,-,N/A,,Overcast,280,2013-10-18 12:52:00
8:35 AM,46.4,42.8,87,30.01,10.0,WNW,3.5,-,N/A,,Scattered Clouds,290,2013-10-18 13:35:00
8:52 AM,46.9,43.0,86,30.02,10.0,West,8.1,-,N/A,,Scattered Clouds,280,2013-10-18 13:52:00
9:40 AM,48.2,42.8,82,30.03,10.0,WNW,11.5,-,N/A,,Overcast,300,2013-10-18 14:40:00
9:52 AM,48.0,42.1,80,30.04,10.0,WNW,11.5,17.3,N/A,,Overcast,300,2013-10-18 14:52:00
10:52 AM,48.9,42.1,77,30.04,10.0,West,8.1,-,N/A,,Overcast,280,2013-10-18 15:52:00
11:52 AM,48.9,39.9,71,30.04,10.0,West,10.4,-,N/A,,Overcast,280,2013-10-18 16:52:00
12:52 PM,51.1,39.9,66,30.03,10.0,WNW,5.8,-,N/A,,Mostly Cloudy,290,2013-10-18 17:52:00
1:26 PM,53.6,39.2,58,30.01,10.0,WNW,9.2,16.1,N/A,,Scattered Clouds,300,2013-10-18 18:26:00
1:36 PM,53.6,39.2,58,30.00,10.0,WNW,6.9,-,N/A,,Mostly Cloudy,300,2013-10-18 18:36:00
1:52 PM,53.1,39.0,59,30.01,10.0,West,9.2,-,N/A,,Mostly Cloudy,260,2013-10-18 18:52:00
1:59 PM,55.4,39.2,54,30.00,10.0,NW,8.1,-,N/A,,Mostly Cloudy,310,2013-10-18 18:59:00
2:52 PM,55.9,36.0,47,29.99,10.0,WNW,9.2,16.1,N/A,,Clear,290,2013-10-18 19:52:00
3:52 PM,57.0,35.1,44,30.00,10.0,WNW,13.8,-,N/A,,Clear,290,2013-10-18 20:52:00
4:52 PM,55.0,35.1,47,30.00,10.0,WNW,6.9,-,N/A,,Clear,300,2013-10-18 21:52:00
5:52 PM,53.1,35.1,50,30.01,10.0,WNW,5.8,-,N/A,,Overcast,300,2013-10-18 22:52:00
6:52 PM,51.1,35.1,54,30.01,10.0,NW,5.8,-,N/A,,Partly Cloudy,310,2013-10-18 23:52:00
7:52 PM,50.0,37.0,61,30.01,10.0,WNW,3.5,-,N/A,,Overcast,300,2013-10-19 00:52:00
8:52 PM,48.9,37.0,64,30.04,10.0,WNW,6.9,-,N/A,,Overcast,290,2013-10-19 01:52:00
9:52 PM,46.9,39.0,74,30.04,10.0,WNW,9.2,-,0.00,Rain,Light Rain,290,2013-10-19 02:52:00
10:52 PM,44.1,41.0,89,30.03,10.0,NW,5.8,-,0.01,Rain,Light Rain,310,2013-10-19 03:52:00
11:52 PM,43.0,42.1,97,30.00,10.0,NW,3.5,-,0.02,Rain,Light Rain,320,2013-10-19 04:52:00